M I D A S
Marine Information and Data Acquisition System
Tripno 313 of the Zeeleeuw from 2002-04-16 07:30:55 to 2002-04-16 14:15:32
Back to CruiseResearch ActivitiesStationsMapUnderway DataData graphs

EquipmentUnitsComments
TimeDGPSUTC
LatitudeDGPSDM.mWGS84
LongitudeDGPSDM.mWGS84
SpeedMeteo Stationm/sRelative wind speed
DirectionMeteo StationdegRelative wind direction
TemperatureMeteo Stationdeg CelciusAir temperature
PressureMeteo StationPaAtmospheric pressure
HumidityMeteo Station%Relative humidity
Missing or incorrect values are displayed as -999
Metereological data collected by the RV Zeeleeuw from 2002-04-16 07:30:55 to 2002-04-16 14:15:32
                                                                                    Next 1000 lines
Time Latitude Longitude Speed Direction Temperature Pressure Humidity
2002-04-16 07:31:03 51°13.687 2°55.905 6.1 8 8.5 101620 75
2002-04-16 07:31:08 51°13.686 2°55.905 6.3 10 8.5 101620 75
2002-04-16 07:31:13 51°13.686 2°55.905 5.1 349 8.5 101620 75
2002-04-16 07:31:18 51°13.686 2°55.905 2.7 319 8.5 101620 75
2002-04-16 07:31:23 51°13.686 2°55.905 2.8 9 8.5 101620 75
2002-04-16 07:31:28 51°13.686 2°55.905 3.5 14 8.5 101620 75
2002-04-16 07:31:33 51°13.686 2°55.905 4.4 3 8.5 101620 75
2002-04-16 07:31:38 51°13.686 2°55.905 5.6 354 8.5 101620 75
2002-04-16 07:31:43 51°13.686 2°55.905 6.6 359 8.5 101620 75
2002-04-16 07:31:47 51°13.686 2°55.905 3.9 329 8.5 101620 75
2002-04-16 07:31:53 51°13.686 2°55.905 5 340 8.5 101620 75
2002-04-16 07:31:58 51°13.686 2°55.904 4.5 8 8.5 101620 75
2002-04-16 07:32:03 51°13.686 2°55.903 2.8 357 8.5 101620 75
2002-04-16 07:32:08 51°13.686 2°55.902 4.6 3 8.5 101620 75
2002-04-16 07:32:13 51°13.687 2°55.9 5.4 358 8.4 101620 75
2002-04-16 07:32:18 51°13.687 2°55.897 4 333 8.4 101620 75
2002-04-16 07:32:23 51°13.688 2°55.894 4.9 22 8.4 101620 75
2002-04-16 07:32:28 51°13.688 2°55.89 4.8 2 8.4 101620 75
2002-04-16 07:32:34 51°13.689 2°55.884 4.5 15 8.5 101620 75
2002-04-16 07:32:38 51°13.689 2°55.881 5.9 22 8.5 101620 75
2002-04-16 07:32:43 51°13.69 2°55.876 4.6 360 8.5 101620 75
2002-04-16 07:32:49 51°13.69 2°55.87 3.9 8 8.5 101620 75
2002-04-16 07:32:53 51°13.691 2°55.866 3.4 355 8.5 101620 75
2002-04-16 07:32:58 51°13.691 2°55.86 5 351 8.5 101620 75
2002-04-16 07:33:04 51°13.692 2°55.854 1.7 358 8.5 101620 75
2002-04-16 07:33:09 51°13.692 2°55.848 4.5 350 8.5 101620 75
2002-04-16 07:33:14 51°13.691 2°55.842 4.4 8 8.4 101620 75
2002-04-16 07:33:18 51°13.691 2°55.838 5.5 348 8.4 101620 75
2002-04-16 07:33:23 51°13.691 2°55.832 3 339 8.4 101620 75
2002-04-16 07:33:29 51°13.691 2°55.824 7 350 8.4 101620 75
2002-04-16 07:33:34 51°13.69 2°55.818 5.7 348 8.4 101630 75
2002-04-16 07:33:39 51°13.69 2°55.813 5.1 348 8.4 101630 75
2002-04-16 07:33:43 51°13.69 2°55.808 4.9 5 8.4 101630 75
2002-04-16 07:33:49 51°13.689 2°55.801 2.8 325 8.4 101630 75
2002-04-16 07:33:53 51°13.689 2°55.796 3.7 346 8.4 101630 75
2002-04-16 07:33:58 51°13.689 2°55.79 1.6 357 8.4 101630 75
2002-04-16 07:34:03 51°13.688 2°55.784 4.2 10 8.4 101630 75
2002-04-16 07:34:09 51°13.688 2°55.777 5.8 344 8.4 101630 75
2002-04-16 07:34:13 51°13.688 2°55.773 5.9 354 8.4 101620 75
2002-04-16 07:34:18 51°13.687 2°55.767 4.3 356 8.4 101620 75
2002-04-16 07:34:22 51°13.687 2°55.763 2.8 320 8.4 101620 76
2002-04-16 07:34:28 51°13.686 2°55.757 2.4 349 8.4 101620 76
2002-04-16 07:34:33 51°13.686 2°55.753 2.4 339 8.4 101620 76
2002-04-16 07:34:39 51°13.686 2°55.749 1.2 330 8.4 101620 76
2002-04-16 07:34:43 51°13.685 2°55.749 1 341 8.4 101620 76
2002-04-16 07:34:48 51°13.686 2°55.749 5.4 307 8.4 101620 76
2002-04-16 07:34:53 51°13.686 2°55.751 7.1 298 8.4 101620 76
2002-04-16 07:34:58 51°13.687 2°55.754 7.6 293 8.4 101620 76
2002-04-16 07:35:03 51°13.689 2°55.757 6.6 288 8.4 101620 76
2002-04-16 07:35:08 51°13.692 2°55.76 7.1 279 8.4 101620 76
2002-04-16 07:35:13 51°13.694 2°55.762 6.5 276 8.4 101620 76
2002-04-16 07:35:18 51°13.697 2°55.764 5.6 280 8.4 101620 76
2002-04-16 07:35:23 51°13.698 2°55.766 6.4 283 8.5 101620 76
2002-04-16 07:35:28 51°13.7 2°55.768 5.4 272 8.5 101620 76
2002-04-16 07:35:33 51°13.701 2°55.768 5.1 285 8.5 101610 76
2002-04-16 07:35:38 51°13.701 2°55.769 5.1 285 8.5 101610 76
2002-04-16 07:35:42 51°13.701 2°55.769 4.6 281 8.4 101620 76
2002-04-16 07:35:48 51°13.7 2°55.769 3.9 292 8.4 101620 76
2002-04-16 07:35:53 51°13.698 2°55.768 5.8 293 8.5 101620 76
2002-04-16 07:35:58 51°13.696 2°55.767 5.6 293 8.5 101620 76
2002-04-16 07:36:03 51°13.693 2°55.766 4.9 290 8.5 101620 76
2002-04-16 07:36:09 51°13.69 2°55.764 4.5 289 8.5 101620 76
2002-04-16 07:36:13 51°13.689 2°55.763 4.3 286 8.5 101620 76
2002-04-16 07:36:18 51°13.688 2°55.763 4.1 275 8.5 101620 76
2002-04-16 07:36:23 51°13.689 2°55.763 5 269 8.5 101620 76
2002-04-16 07:36:29 51°13.691 2°55.764 7.3 255 8.5 101620 76
2002-04-16 07:36:33 51°13.694 2°55.764 6.7 245 8.5 101620 76
2002-04-16 07:36:39 51°13.699 2°55.763 6.7 245 8.5 101620 76
2002-04-16 07:36:44 51°13.704 2°55.761 7.2 230 8.5 101620 76
2002-04-16 07:36:49 51°13.71 2°55.757 6.4 231 8.5 101620 76
2002-04-16 07:36:53 51°13.716 2°55.753 7.4 224 8.5 101610 76
2002-04-16 07:36:58 51°13.723 2°55.747 7 225 8.5 101610 76
2002-04-16 07:37:03 51°13.73 2°55.74 7.6 230 8.5 101610 76
2002-04-16 07:37:07 51°13.736 2°55.735 6.8 226 8.5 101610 76
2002-04-16 07:37:13 51°13.746 2°55.726 7.9 228 8.5 101610 76
2002-04-16 07:37:18 51°13.754 2°55.719 7.6 225 8.5 101610 76
2002-04-16 07:37:23 51°13.762 2°55.71 9.2 228 8.5 101610 76
2002-04-16 07:37:27 51°13.768 2°55.703 7.6 213 8.5 101610 76
2002-04-16 07:37:32 51°13.776 2°55.694 8.2 222 8.5 101610 77
2002-04-16 07:37:38 51°13.786 2°55.684 9.9 226 8.5 101610 77
2002-04-16 07:37:43 51°13.795 2°55.676 8.5 226 8.5 101610 77
2002-04-16 07:37:48 51°13.803 2°55.668 8 225 8.5 101610 77
2002-04-16 07:37:53 51°13.811 2°55.661 9.5 223 8.5 101610 77
2002-04-16 07:37:58 51°13.819 2°55.655 8.9 228 8.5 101610 77
2002-04-16 07:38:03 51°13.827 2°55.649 9.5 229 8.5 101610 77
2002-04-16 07:38:08 51°13.835 2°55.643 8.6 228 8.5 101610 77
2002-04-16 07:38:12 51°13.841 2°55.639 8.9 134 8.5 101610 77
2002-04-16 07:38:18 51°13.851 2°55.632 9.6 135 8.5 101610 77
2002-04-16 07:38:23 51°13.858 2°55.627 9.6 230 8.5 101610 77
2002-04-16 07:38:27 51°13.864 2°55.622 9 222 8.5 101610 77
2002-04-16 07:38:33 51°13.874 2°55.616 9.4 230 8.5 101610 77
2002-04-16 07:38:38 51°13.881 2°55.611 9.6 227 8.5 101610 77
2002-04-16 07:38:42 51°13.887 2°55.607 8.6 231 8.5 101610 77
2002-04-16 07:38:48 51°13.896 2°55.601 9.6 226 8.5 101610 77
2002-04-16 07:38:53 51°13.904 2°55.596 9.6 229 8.5 101620 77
2002-04-16 07:38:58 51°13.911 2°55.59 8.6 226 8.5 101620 77
2002-04-16 07:39:02 51°13.917 2°55.586 8.7 232 8.5 101620 77
2002-04-16 07:39:07 51°13.924 2°55.581 8.7 223 8.5 101620 77
2002-04-16 07:39:13 51°13.933 2°55.575 9.5 236 8.5 101620 77
2002-04-16 07:39:18 51°13.94 2°55.57 9.3 225 8.5 101620 77
2002-04-16 07:39:23 51°13.947 2°55.564 8.1 233 8.5 101610 77
2002-04-16 07:39:28 51°13.954 2°55.559 7.6 229 8.5 101610 77
2002-04-16 07:39:33 51°13.961 2°55.554 8.5 229 8.5 101610 77
2002-04-16 07:39:38 51°13.968 2°55.548 8.5 229 8.5 101610 77
2002-04-16 07:39:42 51°13.973 2°55.544 9.1 230 8.5 101610 77
2002-04-16 07:39:48 51°13.981 2°55.538 8.9 232 8.5 101610 77
2002-04-16 07:39:53 51°13.989 2°55.533 10 230 8.5 101620 77
2002-04-16 07:39:58 51°13.996 2°55.527 9.4 225 8.5 101620 77
2002-04-16 07:40:03 51°14.004 2°55.521 9.7 230 8.5 101620 77
2002-04-16 07:40:08 51°14.013 2°55.515 10.8 228 8.5 101620 77
2002-04-16 07:40:12 51°14.02 2°55.509 9.1 232 8.5 101610 77
2002-04-16 07:40:18 51°14.03 2°55.501 8.7 227 8.5 101610 77
2002-04-16 07:40:23 51°14.039 2°55.494 10.2 227 8.5 101610 77
2002-04-16 07:40:28 51°14.048 2°55.487 10 228 8.5 101610 77
2002-04-16 07:40:33 51°14.058 2°55.479 9.3 228 8.4 101610 77
2002-04-16 07:40:38 51°14.068 2°55.471 10.8 230 8.4 101610 77
2002-04-16 07:40:42 51°14.076 2°55.465 8.5 231 8.4 101620 77
2002-04-16 07:40:48 51°14.088 2°55.455 9.7 227 8.4 101620 77
2002-04-16 07:40:53 51°14.098 2°55.446 10.8 231 8.4 101610 77
2002-04-16 07:40:58 51°14.109 2°55.436 10.3 229 8.4 101610 77
2002-04-16 07:41:03 51°14.12 2°55.427 9.3 230 8.4 101620 77
2002-04-16 07:41:08 51°14.131 2°55.418 9.3 228 8.4 101620 77
2002-04-16 07:41:13 51°14.142 2°55.407 9.2 223 8.4 101610 77
2002-04-16 07:41:18 51°14.153 2°55.397 10.3 223 8.4 101610 77
2002-04-16 07:41:23 51°14.164 2°55.385 10.2 227 8.5 101610 77
2002-04-16 07:41:29 51°14.177 2°55.371 11.2 224 8.5 101610 77
2002-04-16 07:41:33 51°14.186 2°55.361 10.8 226 8.5 101610 77
2002-04-16 07:41:39 51°14.199 2°55.346 10.8 231 8.5 101610 77
2002-04-16 07:41:44 51°14.21 2°55.332 9.5 135 8.4 101610 77
2002-04-16 07:41:49 51°14.221 2°55.318 12 226 8.4 101610 77
2002-04-16 07:41:54 51°14.231 2°55.303 10.6 216 8.5 101620 77
2002-04-16 07:41:59 51°14.241 2°55.288 9.8 222 8.5 101620 77
2002-04-16 07:42:03 51°14.249 2°55.275 10.3 216 8.5 101610 77
2002-04-16 07:42:09 51°14.261 2°55.256 9.3 224 8.5 101610 77
2002-04-16 07:42:13 51°14.269 2°55.242 10 215 8.4 101620 77
2002-04-16 07:42:19 51°14.28 2°55.222 9.1 218 8.4 101620 77
2002-04-16 07:42:24 51°14.289 2°55.204 9.5 209 8.4 101620 77
2002-04-16 07:42:29 51°14.299 2°55.186 9.6 216 8.4 101620 77
2002-04-16 07:42:33 51°14.306 2°55.172 9.4 211 8.4 101620 78
2002-04-16 07:42:38 51°14.315 2°55.153 10.1 211 8.4 101620 78
2002-04-16 07:42:43 51°14.323 2°55.134 10.2 212 8.4 101620 78
2002-04-16 07:42:49 51°14.333 2°55.109 11.1 205 8.4 101620 78
2002-04-16 07:42:53 51°14.339 2°55.093 11.4 208 8.4 101620 78
2002-04-16 07:42:59 51°14.348 2°55.068 11.2 200 8.4 101620 78
2002-04-16 07:43:04 51°14.355 2°55.047 12 203 8.4 101620 78
2002-04-16 07:43:09 51°14.361 2°55.026 10.5 207 8.4 101620 78
2002-04-16 07:43:13 51°14.365 2°55.008 10.5 200 8.4 101610 78
2002-04-16 07:43:18 51°14.368 2°54.986 9.4 203 8.4 101610 78
2002-04-16 07:43:23 51°14.371 2°54.962 10.7 201 8.4 101610 78
2002-04-16 07:43:28 51°14.373 2°54.939 10.3 200 8.4 101610 78
2002-04-16 07:43:34 51°14.375 2°54.91 10.6 198 8.4 101610 78
2002-04-16 07:43:39 51°14.376 2°54.886 9.1 198 8.4 101610 78
2002-04-16 07:43:43 51°14.377 2°54.866 9.4 193 8.4 101610 78
2002-04-16 07:43:48 51°14.378 2°54.842 10.4 202 8.4 101610 78
2002-04-16 07:43:53 51°14.378 2°54.817 10 198 8.4 101610 77
2002-04-16 07:43:58 51°14.378 2°54.792 8.9 194 8.4 101610 77
2002-04-16 07:44:03 51°14.379 2°54.766 9.8 195 8.3 101610 77
2002-04-16 07:44:08 51°14.378 2°54.74 8.4 196 8.3 101610 77
2002-04-16 07:44:13 51°14.377 2°54.714 10.3 194 8.4 101620 77
2002-04-16 07:44:18 51°14.376 2°54.688 9 190 8.4 101620 77
2002-04-16 07:44:22 51°14.376 2°54.666 8.4 188 8.4 101610 77
2002-04-16 07:44:28 51°14.375 2°54.634 8.6 190 8.4 101610 77
2002-04-16 07:44:33 51°14.373 2°54.607 9.5 194 8.3 101610 77
2002-04-16 07:44:38 51°14.373 2°54.58 9.5 194 8.3 101610 77
2002-04-16 07:44:43 51°14.372 2°54.552 9.9 200 8.3 101610 77
2002-04-16 07:44:48 51°14.37 2°54.525 9.4 195 8.3 101610 77
2002-04-16 07:44:53 51°14.369 2°54.497 9.4 188 8.3 101610 78
2002-04-16 07:44:58 51°14.366 2°54.47 8.5 194 8.3 101610 78
2002-04-16 07:45:03 51°14.363 2°54.442 8.7 191 8.3 101610 78
2002-04-16 07:45:07 51°14.361 2°54.42 8.9 194 8.3 101610 78
2002-04-16 07:45:13 51°14.355 2°54.387 8 186 8.3 101610 78
2002-04-16 07:45:18 51°14.349 2°54.36 7.7 187 8.3 101610 78
2002-04-16 07:45:23 51°14.343 2°54.333 7.7 193 8.4 101610 78
2002-04-16 07:45:28 51°14.336 2°54.306 7.8 185 8.4 101610 78
2002-04-16 07:45:33 51°14.327 2°54.28 7.5 188 8.4 101620 78
2002-04-16 07:45:38 51°14.319 2°54.254 7.5 188 8.4 101620 78
2002-04-16 07:45:43 51°14.31 2°54.228 7 183 8.3 101620 78
2002-04-16 07:45:48 51°14.301 2°54.203 7.4 183 8.3 101620 78
2002-04-16 07:45:53 51°14.291 2°54.177 7.9 190 8.4 101620 78
2002-04-16 07:45:58 51°14.282 2°54.15 8 185 8.4 101620 78
2002-04-16 07:46:03 51°14.274 2°54.123 7.9 191 8.3 101620 78
2002-04-16 07:46:08 51°14.265 2°54.096 7.8 188 8.3 101620 78
2002-04-16 07:46:13 51°14.256 2°54.069 7.1 182 8.3 101620 78
2002-04-16 07:46:18 51°14.247 2°54.042 7.8 185 8.3 101620 78
2002-04-16 07:46:23 51°14.238 2°54.015 7.6 182 8.3 101620 78
2002-04-16 07:46:28 51°14.229 2°53.988 7.4 192 8.3 101620 78
2002-04-16 07:46:33 51°14.221 2°53.961 8 182 8.3 101620 78
2002-04-16 07:46:38 51°14.211 2°53.934 8 182 8.3 101620 78
2002-04-16 07:46:42 51°14.204 2°53.912 7.8 185 8.3 101620 77
2002-04-16 07:46:48 51°14.194 2°53.878 9.1 186 8.3 101620 77
2002-04-16 07:46:53 51°14.185 2°53.851 8.2 181 8.3 101620 77
2002-04-16 07:46:58 51°14.175 2°53.824 7.6 182 8.3 101620 77
2002-04-16 07:47:03 51°14.167 2°53.796 7.1 191 8.3 101620 77
2002-04-16 07:47:07 51°14.159 2°53.774 7 182 8.3 101620 77
2002-04-16 07:47:13 51°14.148 2°53.74 6.5 182 8.3 101610 77
2002-04-16 07:47:17 51°14.141 2°53.718 7.4 180 8.3 101610 77
2002-04-16 07:47:23 51°14.131 2°53.684 7 184 8.3 101620 78
2002-04-16 07:47:28 51°14.121 2°53.657 7.3 185 8.3 101620 78
2002-04-16 07:47:33 51°14.112 2°53.628 7.7 186 8.3 101620 77
2002-04-16 07:47:38 51°14.103 2°53.601 7.7 186 8.3 101620 77
2002-04-16 07:47:43 51°14.093 2°53.573 8.1 188 8.3 101620 78
2002-04-16 07:47:48 51°14.084 2°53.545 9.2 188 8.3 101620 78
2002-04-16 07:47:53 51°14.075 2°53.517 9.3 187 8.3 101620 78
2002-04-16 07:47:58 51°14.065 2°53.489 8.5 188 8.3 101620 78
2002-04-16 07:48:03 51°14.056 2°53.462 9.2 191 8.3 101620 78
2002-04-16 07:48:08 51°14.047 2°53.432 8.1 193 8.3 101620 78
2002-04-16 07:48:13 51°14.037 2°53.405 9.8 189 8.4 101620 78
2002-04-16 07:48:18 51°14.028 2°53.376 8.4 188 8.4 101620 78
2002-04-16 07:48:23 51°14.019 2°53.348 8.6 189 8.3 101620 78
2002-04-16 07:48:28 51°14.009 2°53.32 8.7 189 8.3 101620 78
2002-04-16 07:48:33 51°13.999 2°53.292 8.7 183 8.4 101620 78
2002-04-16 07:48:38 51°13.989 2°53.264 8.7 183 8.4 101620 78
2002-04-16 07:48:42 51°13.981 2°53.242 8.3 189 8.3 101620 78
2002-04-16 07:48:48 51°13.969 2°53.208 8.2 189 8.3 101620 78
2002-04-16 07:48:53 51°13.959 2°53.18 8.6 187 8.3 101620 78
2002-04-16 07:48:58 51°13.949 2°53.152 8.6 187 8.3 101620 78
2002-04-16 07:49:03 51°13.94 2°53.123 8.1 189 8.3 101620 78
2002-04-16 07:49:08 51°13.93 2°53.095 7.3 182 8.3 101620 78
2002-04-16 07:49:13 51°13.92 2°53.067 7.1 189 8.3 101620 77
2002-04-16 07:49:18 51°13.91 2°53.038 7.8 185 8.3 101620 77
2002-04-16 07:49:23 51°13.9 2°53.01 7.4 187 8.3 101620 77
2002-04-16 07:49:28 51°13.89 2°52.982 7.7 189 8.3 101620 77
2002-04-16 07:49:33 51°13.88 2°52.953 7.6 185 8.3 101620 77
2002-04-16 07:49:38 51°13.871 2°52.924 8.3 188 8.3 101620 77
2002-04-16 07:49:43 51°13.86 2°52.896 8.2 184 8.3 101620 77
2002-04-16 07:49:48 51°13.851 2°52.868 8.1 189 8.3 101620 77
2002-04-16 07:49:53 51°13.841 2°52.839 8.2 191 8.3 101620 77
2002-04-16 07:49:58 51°13.831 2°52.811 7.3 181 8.3 101620 77
2002-04-16 07:50:03 51°13.821 2°52.782 8.9 192 8.3 101620 77
2002-04-16 07:50:08 51°13.811 2°52.753 7.8 184 8.3 101620 77
2002-04-16 07:50:13 51°13.801 2°52.725 7.2 189 8.3 101620 77
2002-04-16 07:50:18 51°13.792 2°52.696 7.2 185 8.3 101620 77
2002-04-16 07:50:23 51°13.781 2°52.668 7.2 186 8.3 101620 77
2002-04-16 07:50:28 51°13.771 2°52.639 7 186 8.3 101620 77
2002-04-16 07:50:33 51°13.761 2°52.611 6.9 183 8.3 101620 77
2002-04-16 07:50:38 51°13.751 2°52.582 6.5 183 8.3 101620 77
2002-04-16 07:50:43 51°13.741 2°52.553 6.9 187 8.2 101620 76
2002-04-16 07:50:47 51°13.733 2°52.531 7.2 182 8.2 101620 76
2002-04-16 07:50:53 51°13.722 2°52.496 7 187 8.3 101620 76
2002-04-16 07:50:58 51°13.711 2°52.467 6.9 179 8.3 101620 76
2002-04-16 07:51:03 51°13.702 2°52.439 7.3 186 8.3 101620 77
2002-04-16 07:51:08 51°13.692 2°52.41 9.1 189 8.3 101620 77
2002-04-16 07:51:13 51°13.682 2°52.38 7.1 184 8.3 101620 76
2002-04-16 07:51:18 51°13.672 2°52.352 6.4 181 8.3 101620 76
2002-04-16 07:51:22 51°13.664 2°52.329 6.7 181 8.3 101620 77
2002-04-16 07:51:28 51°13.653 2°52.295 7.2 189 8.3 101620 77
2002-04-16 07:51:33 51°13.642 2°52.266 8.2 186 8.3 101620 76
2002-04-16 07:51:38 51°13.633 2°52.237 8.2 186 8.3 101620 76
2002-04-16 07:51:43 51°13.623 2°52.208 7.9 196 8.3 101620 76
2002-04-16 07:51:48 51°13.613 2°52.18 8.6 191 8.3 101620 76
2002-04-16 07:51:53 51°13.603 2°52.151 8.5 194 8.3 101620 77
2002-04-16 07:51:58 51°13.593 2°52.122 10.1 192 8.3 101620 77
2002-04-16 07:52:03 51°13.583 2°52.094 9.3 192 8.3 101640 77
2002-04-16 07:52:07 51°13.575 2°52.071 9.1 190 8.3 101640 77
2002-04-16 07:52:13 51°13.563 2°52.036 8.6 189 8.3 101630 77
2002-04-16 07:52:18 51°13.553 2°52.007 7.9 191 8.3 101630 77
2002-04-16 07:52:23 51°13.543 2°51.978 9.5 184 8.3 101630 77
2002-04-16 07:52:27 51°13.535 2°51.955 9.3 190 8.3 101630 77
2002-04-16 07:52:33 51°13.523 2°51.921 9.6 188 8.3 101620 76
2002-04-16 07:52:38 51°13.514 2°51.892 8.6 187 8.3 101620 76
2002-04-16 07:52:43 51°13.504 2°51.863 8.3 184 8.3 101630 76
2002-04-16 07:52:48 51°13.494 2°51.834 8.4 186 8.3 101630 76
2002-04-16 07:52:53 51°13.485 2°51.805 9.1 189 8.3 101630 77
2002-04-16 07:52:58 51°13.475 2°51.776 8.7 184 8.3 101630 77
2002-04-16 07:53:03 51°13.465 2°51.747 8.8 190 8.3 101630 76
2002-04-16 07:53:08 51°13.455 2°51.718 8.5 185 8.3 101630 76
2002-04-16 07:53:13 51°13.446 2°51.689 7.4 189 8.3 101630 76
2002-04-16 07:53:18 51°13.436 2°51.66 7.8 194 8.3 101630 76
2002-04-16 07:53:23 51°13.427 2°51.631 8.4 182 8.3 101620 76
2002-04-16 07:53:28 51°13.417 2°51.602 7.3 185 8.3 101620 76
2002-04-16 07:53:33 51°13.407 2°51.573 7.2 181 8.3 101620 76
2002-04-16 07:53:38 51°13.397 2°51.543 7.7 183 8.3 101620 76
2002-04-16 07:53:42 51°13.389 2°51.52 7.5 182 8.3 101630 76
2002-04-16 07:53:48 51°13.377 2°51.486 8 182 8.3 101630 76
2002-04-16 07:53:53 51°13.368 2°51.456 6.6 183 8.3 101630 75
2002-04-16 07:53:58 51°13.358 2°51.427 6.8 183 8.3 101630 75
2002-04-16 07:54:03 51°13.347 2°51.399 7.8 179 8.3 101620 75
2002-04-16 07:54:08 51°13.338 2°51.369 6.9 191 8.3 101620 75
2002-04-16 07:54:13 51°13.327 2°51.34 7.5 186 8.3 101630 75
2002-04-16 07:54:17 51°13.32 2°51.317 7.7 190 8.3 101630 75
2002-04-16 07:54:23 51°13.308 2°51.282 7.1 187 8.3 101630 75
2002-04-16 07:54:28 51°13.298 2°51.253 8.4 193 8.3 101630 75
2002-04-16 07:54:33 51°13.288 2°51.224 7.7 183 8.3 101630 75
2002-04-16 07:54:38 51°13.279 2°51.195 7.5 188 8.3 101630 75
2002-04-16 07:54:43 51°13.269 2°51.165 7.6 185 8.3 101630 76
2002-04-16 07:54:48 51°13.259 2°51.136 6.7 188 8.3 101630 76
2002-04-16 07:54:52 51°13.251 2°51.113 8 194 8.4 101630 76
2002-04-16 07:54:58 51°13.239 2°51.078 8.6 191 8.4 101630 76
2002-04-16 07:55:03 51°13.23 2°51.048 8.3 190 8.4 101630 76
2002-04-16 07:55:07 51°13.222 2°51.025 8.9 192 8.4 101630 76
2002-04-16 07:55:13 51°13.21 2°50.99 7.1 189 8.4 101630 76
2002-04-16 07:55:18 51°13.199 2°50.961 9.3 191 8.4 101630 76
2002-04-16 07:55:22 51°13.191 2°50.938 9.7 193 8.4 101640 76
2002-04-16 07:55:28 51°13.179 2°50.903 8.5 191 8.4 101640 76
2002-04-16 07:55:33 51°13.169 2°50.874 9.1 196 8.4 101630 75
2002-04-16 07:55:38 51°13.159 2°50.845 7.7 185 8.4 101630 75
2002-04-16 07:55:43 51°13.149 2°50.816 7.7 185 8.4 101630 76
2002-04-16 07:55:48 51°13.14 2°50.786 8.7 191 8.4 101630 76
2002-04-16 07:55:53 51°13.13 2°50.757 8.8 189 8.4 101630 76
2002-04-16 07:55:58 51°13.12 2°50.728 9.8 188 8.4 101630 76
2002-04-16 07:56:03 51°13.11 2°50.699 10 195 8.4 101630 76
2002-04-16 07:56:08 51°13.1 2°50.67 8.9 187 8.4 101630 76
2002-04-16 07:56:13 51°13.091 2°50.641 8 186 8.4 101640 76
2002-04-16 07:56:18 51°13.08 2°50.612 7.6 183 8.4 101640 76
2002-04-16 07:56:23 51°13.07 2°50.583 8 186 8.4 101630 76
2002-04-16 07:56:28 51°13.061 2°50.554 8.1 184 8.4 101630 76
2002-04-16 07:56:33 51°13.051 2°50.525 7.4 184 8.4 101630 76
2002-04-16 07:56:38 51°13.041 2°50.496 7.4 184 8.4 101630 76
2002-04-16 07:56:43 51°13.031 2°50.467 7.7 190 8.4 101620 75
2002-04-16 07:56:47 51°13.023 2°50.444 8.3 190 8.4 101620 75
2002-04-16 07:56:53 51°13.012 2°50.409 7.6 183 8.4 101630 75
2002-04-16 07:56:58 51°13.002 2°50.38 7.5 186 8.4 101630 75
2002-04-16 07:57:03 51°12.992 2°50.351 8.8 192 8.4 101630 75
2002-04-16 07:57:07 51°12.985 2°50.328 8 185 8.4 101630 75
2002-04-16 07:57:13 51°12.973 2°50.294 7.4 182 8.4 101640 75
2002-04-16 07:57:18 51°12.963 2°50.264 7.7 192 8.4 101640 75
2002-04-16 07:57:23 51°12.953 2°50.236 6.8 191 8.3 101630 75
2002-04-16 07:57:28 51°12.944 2°50.207 7.7 193 8.3 101630 75
2002-04-16 07:57:33 51°12.934 2°50.178 8.6 186 8.3 101620 75
2002-04-16 07:57:38 51°12.924 2°50.149 8.6 191 8.3 101620 75
2002-04-16 07:57:43 51°12.914 2°50.12 8.2 188 8.4 101630 76
2002-04-16 07:57:48 51°12.905 2°50.091 7.2 192 8.4 101630 76
2002-04-16 07:57:53 51°12.895 2°50.062 7.8 189 8.4 101640 76
2002-04-16 07:57:58 51°12.885 2°50.034 7.8 186 8.4 101640 76
2002-04-16 07:58:03 51°12.876 2°50.005 7.5 190 8.4 101640 75
2002-04-16 07:58:08 51°12.866 2°49.976 8.6 190 8.4 101640 75
2002-04-16 07:58:12 51°12.858 2°49.953 7.1 184 8.4 101640 75
2002-04-16 07:58:18 51°12.846 2°49.919 7.9 185 8.4 101640 75
2002-04-16 07:58:23 51°12.837 2°49.89 7.7 183 8.4 101630 75
2002-04-16 07:58:28 51°12.827 2°49.862 7.1 186 8.4 101630 75
2002-04-16 07:58:33 51°12.817 2°49.832 8.1 189 8.4 101630 75
2002-04-16 07:58:38 51°12.807 2°49.803 9 190 8.4 101630 75
2002-04-16 07:58:43 51°12.798 2°49.774 7.8 187 8.4 101630 75
2002-04-16 07:58:48 51°12.788 2°49.746 8.7 186 8.4 101630 75
2002-04-16 07:58:53 51°12.777 2°49.717 8.8 189 8.4 101630 76
2002-04-16 07:58:58 51°12.768 2°49.688 8.5 189 8.4 101630 76
2002-04-16 07:59:03 51°12.758 2°49.659 8.4 189 8.4 101630 75
2002-04-16 07:59:08 51°12.748 2°49.63 7.6 187 8.4 101630 75
2002-04-16 07:59:13 51°12.739 2°49.6 8.6 192 8.4 101630 75
2002-04-16 07:59:18 51°12.729 2°49.571 8.3 192 8.4 101630 75
2002-04-16 07:59:23 51°12.721 2°49.541 8.2 195 8.4 101630 75
2002-04-16 07:59:28 51°12.711 2°49.511 9.3 197 8.4 101630 75
2002-04-16 07:59:33 51°12.702 2°49.481 9 199 8.4 101630 75
2002-04-16 07:59:38 51°12.692 2°49.452 9.7 189 8.4 101630 75
2002-04-16 07:59:42 51°12.686 2°49.428 9.7 192 8.4 101630 75
2002-04-16 07:59:48 51°12.674 2°49.392 9.4 194 8.4 101630 75
2002-04-16 07:59:53 51°12.665 2°49.363 9.8 195 8.4 101630 76
2002-04-16 07:59:58 51°12.656 2°49.333 9.7 191 8.4 101630 76
2002-04-16 08:00:02 51°12.649 2°49.309 9.9 195 8.4 101630 76
2002-04-16 08:00:08 51°12.638 2°49.273 8.4 193 8.4 101630 76
2002-04-16 08:00:13 51°12.628 2°49.244 8.3 189 8.4 101630 76
2002-04-16 08:00:18 51°12.62 2°49.213 8.2 192 8.4 101630 76
2002-04-16 08:00:23 51°12.611 2°49.184 9 192 8.4 101630 76
2002-04-16 08:00:28 51°12.601 2°49.154 8.5 190 8.4 101630 76
2002-04-16 08:00:33 51°12.592 2°49.124 8.5 192 8.4 101630 75
2002-04-16 08:00:38 51°12.583 2°49.095 8.6 192 8.4 101630 75
2002-04-16 08:00:43 51°12.574 2°49.065 8.1 192 8.4 101630 75
2002-04-16 08:00:48 51°12.564 2°49.035 8.7 193 8.4 101630 75
2002-04-16 08:00:53 51°12.555 2°49.006 8.3 195 8.4 101630 75
2002-04-16 08:00:58 51°12.545 2°48.977 9.7 193 8.4 101630 75
2002-04-16 08:01:03 51°12.537 2°48.946 8 188 8.4 101640 75
2002-04-16 08:01:08 51°12.527 2°48.917 8.8 189 8.4 101640 75
2002-04-16 08:01:12 51°12.519 2°48.893 9.6 189 8.4 101640 75
2002-04-16 08:01:17 51°12.51 2°48.863 8.6 195 8.4 101640 75
2002-04-16 08:01:23 51°12.499 2°48.828 9.1 187 8.4 101630 76
2002-04-16 08:01:28 51°12.49 2°48.798 7.8 192 8.4 101630 76
2002-04-16 08:01:32 51°12.482 2°48.774 9.5 189 8.4 101630 75
2002-04-16 08:01:38 51°12.472 2°48.738 9.1 187 8.4 101630 75
2002-04-16 08:01:43 51°12.462 2°48.709 8.1 187 8.4 101630 75
2002-04-16 08:01:48 51°12.453 2°48.679 9.2 191 8.4 101630 75
2002-04-16 08:01:52 51°12.445 2°48.656 7.7 189 8.4 101630 75
2002-04-16 08:01:58 51°12.435 2°48.62 8.2 190 8.4 101630 75
2002-04-16 08:02:03 51°12.425 2°48.59 8.4 193 8.4 101630 75
2002-04-16 08:02:08 51°12.416 2°48.56 8.9 190 8.4 101630 75
2002-04-16 08:02:13 51°12.407 2°48.531 9.5 191 8.4 101630 75
2002-04-16 08:02:18 51°12.398 2°48.501 8.2 189 8.4 101630 75
2002-04-16 08:02:23 51°12.387 2°48.472 8.5 189 8.4 101630 75
2002-04-16 08:02:28 51°12.38 2°48.441 8.6 192 8.4 101630 75
2002-04-16 08:02:33 51°12.369 2°48.413 8 186 8.4 101630 75
2002-04-16 08:02:38 51°12.361 2°48.382 8 195 8.4 101630 75
2002-04-16 08:02:42 51°12.353 2°48.359 8.1 191 8.4 101630 75
2002-04-16 08:02:48 51°12.343 2°48.323 8.1 189 8.4 101630 75
2002-04-16 08:02:53 51°12.332 2°48.294 9 192 8.4 101630 75
2002-04-16 08:02:58 51°12.324 2°48.263 8.9 199 8.4 101630 75
2002-04-16 08:03:03 51°12.315 2°48.233 9.1 198 8.4 101640 75
2002-04-16 08:03:08 51°12.306 2°48.204 9.7 194 8.4 101640 75
2002-04-16 08:03:13 51°12.297 2°48.175 9.2 193 8.5 101640 75
2002-04-16 08:03:18 51°12.288 2°48.145 8.9 189 8.5 101640 75
2002-04-16 08:03:22 51°12.28 2°48.121 9.6 192 8.4 101630 76
2002-04-16 08:03:28 51°12.269 2°48.086 8.5 187 8.4 101630 76
2002-04-16 08:03:33 51°12.261 2°48.056 9 192 8.4 101630 75
2002-04-16 08:03:38 51°12.251 2°48.027 8.5 188 8.4 101630 75
2002-04-16 08:03:42 51°12.244 2°48.003 8.7 191 8.4 101630 75
2002-04-16 08:03:48 51°12.232 2°47.968 8.7 188 8.4 101630 75
2002-04-16 08:03:53 51°12.223 2°47.938 9.1 188 8.4 101640 75
2002-04-16 08:03:58 51°12.214 2°47.909 8.7 189 8.4 101640 75
2002-04-16 08:04:02 51°12.206 2°47.886 8.9 192 8.4 101630 75
2002-04-16 08:04:08 51°12.195 2°47.85 9.3 188 8.4 101630 75
2002-04-16 08:04:13 51°12.186 2°47.82 8 186 8.4 101630 75
2002-04-16 08:04:18 51°12.177 2°47.79 8.6 189 8.4 101630 75
2002-04-16 08:04:23 51°12.168 2°47.761 9.7 190 8.4 101630 75
2002-04-16 08:04:28 51°12.159 2°47.731 9 188 8.4 101630 75
2002-04-16 08:04:33 51°12.15 2°47.701 7.7 196 8.4 101630 74
2002-04-16 08:04:38 51°12.141 2°47.672 7.8 188 8.4 101630 74
2002-04-16 08:04:42 51°12.133 2°47.648 8.3 190 8.4 101640 74
2002-04-16 08:04:48 51°12.122 2°47.613 8.2 181 8.4 101640 74
2002-04-16 08:04:53 51°12.113 2°47.583 8.3 189 8.4 101630 74
2002-04-16 08:04:58 51°12.104 2°47.553 7.9 182 8.4 101630 74
2002-04-16 08:05:03 51°12.095 2°47.523 7.7 189 8.4 101630 73
2002-04-16 08:05:08 51°12.086 2°47.494 7.4 182 8.4 101630 73
2002-04-16 08:05:12 51°12.079 2°47.47 7.6 185 8.4 101630 73
2002-04-16 08:05:18 51°12.068 2°47.435 8 183 8.4 101630 73
2002-04-16 08:05:23 51°12.059 2°47.405 7.7 186 8.4 101630 73
2002-04-16 08:05:27 51°12.051 2°47.381 8.5 189 8.4 101630 73
2002-04-16 08:05:33 51°12.041 2°47.345 7.8 186 8.4 101630 73
2002-04-16 08:05:38 51°12.031 2°47.315 7.6 184 8.4 101630 73
2002-04-16 08:05:43 51°12.022 2°47.285 8.1 190 8.4 101640 73
2002-04-16 08:05:48 51°12.013 2°47.256 7.4 185 8.4 101640 73
2002-04-16 08:05:53 51°12.003 2°47.226 7.2 186 8.4 101640 73
2002-04-16 08:05:58 51°11.994 2°47.195 8.7 192 8.4 101640 73
2002-04-16 08:06:03 51°11.985 2°47.165 7.8 184 8.4 101640 74
2002-04-16 08:06:08 51°11.976 2°47.135 7.7 187 8.4 101640 74
2002-04-16 08:06:13 51°11.967 2°47.105 8.6 189 8.4 101640 73
2002-04-16 08:06:18 51°11.958 2°47.075 8 187 8.4 101640 73
2002-04-16 08:06:23 51°11.949 2°47.045 8.2 197 8.4 101640 73
2002-04-16 08:06:28 51°11.94 2°47.015 8.2 192 8.4 101640 73
2002-04-16 08:06:33 51°11.931 2°46.985 8.6 193 8.5 101640 73
2002-04-16 08:06:38 51°11.921 2°46.956 8.7 195 8.5 101640 73
2002-04-16 08:06:43 51°11.913 2°46.925 8.5 190 8.5 101640 74
2002-04-16 08:06:48 51°11.903 2°46.896 9.2 191 8.5 101640 74
2002-04-16 08:06:53 51°11.894 2°46.866 9.1 188 8.5 101640 74
2002-04-16 08:06:58 51°11.885 2°46.836 8.2 190 8.5 101640 74
2002-04-16 08:07:03 51°11.876 2°46.806 8.6 190 8.5 101640 74
2002-04-16 08:07:08 51°11.866 2°46.777 7.3 186 8.5 101640 74
2002-04-16 08:07:13 51°11.857 2°46.747 9.1 192 8.5 101640 74
2002-04-16 08:07:18 51°11.848 2°46.717 8 189 8.5 101640 74
2002-04-16 08:07:23 51°11.84 2°46.686 8.4 197 8.5 101640 74
2002-04-16 08:07:28 51°11.83 2°46.657 9.1 194 8.5 101640 74
2002-04-16 08:07:33 51°11.821 2°46.627 8.5 188 8.5 101640 74
2002-04-16 08:07:38 51°11.812 2°46.598 9.2 188 8.5 101640 74
2002-04-16 08:07:43 51°11.803 2°46.567 7.9 187 8.5 101640 74
2002-04-16 08:07:48 51°11.793 2°46.538 9.2 188 8.5 101640 74
2002-04-16 08:07:53 51°11.784 2°46.508 9.2 189 8.5 101640 74
2002-04-16 08:07:58 51°11.775 2°46.478 7.2 183 8.5 101640 74
2002-04-16 08:08:03 51°11.766 2°46.448 8.4 185 8.5 101640 73
2002-04-16 08:08:08 51°11.757 2°46.418 7.9 188 8.5 101640 73
2002-04-16 08:08:13 51°11.747 2°46.389 7.3 185 8.5 101640 73
2002-04-16 08:08:18 51°11.739 2°46.358 7.5 188 8.5 101640 73
2002-04-16 08:08:23 51°11.729 2°46.329 7.3 184 8.5 101640 73
2002-04-16 08:08:28 51°11.721 2°46.299 7.5 195 8.5 101640 73
2002-04-16 08:08:33 51°11.712 2°46.269 9 197 8.5 101640 73
2002-04-16 08:08:38 51°11.702 2°46.239 8.9 190 8.5 101640 73
2002-04-16 08:08:42 51°11.695 2°46.214 8.6 193 8.5 101640 73
2002-04-16 08:08:48 51°11.685 2°46.178 9.4 193 8.5 101640 73
2002-04-16 08:08:53 51°11.675 2°46.149 9.4 191 8.5 101640 73
2002-04-16 08:08:58 51°11.667 2°46.119 8.5 193 8.5 101640 73
2002-04-16 08:09:02 51°11.659 2°46.095 9.5 196 8.5 101640 74
2002-04-16 08:09:08 51°11.648 2°46.06 10.4 191 8.5 101640 74
2002-04-16 08:09:13 51°11.639 2°46.029 9.1 192 8.5 101640 74
2002-04-16 08:09:18 51°11.63 2°45.999 9.7 189 8.5 101640 74
2002-04-16 08:09:23 51°11.621 2°45.97 8.3 189 8.5 101640 74
2002-04-16 08:09:28 51°11.612 2°45.94 9.2 194 8.5 101640 74
2002-04-16 08:09:33 51°11.603 2°45.91 9.3 193 8.5 101640 73
2002-04-16 08:09:38 51°11.594 2°45.88 9.8 190 8.5 101640 73
2002-04-16 08:09:43 51°11.585 2°45.85 9.2 193 8.5 101630 73
2002-04-16 08:09:48 51°11.576 2°45.82 9.7 194 8.5 101630 73
2002-04-16 08:09:53 51°11.566 2°45.791 9.5 189 8.5 101640 73
2002-04-16 08:09:58 51°11.558 2°45.761 8.7 190 8.5 101640 73
2002-04-16 08:10:03 51°11.549 2°45.731 9.1 194 8.5 101640 73
2002-04-16 08:10:08 51°11.54 2°45.701 8.7 197 8.5 101640 73
2002-04-16 08:10:13 51°11.53 2°45.672 9.4 190 8.5 101640 73
2002-04-16 08:10:18 51°11.521 2°45.642 8.8 198 8.5 101640 73
2002-04-16 08:10:23 51°11.511 2°45.613 8.1 191 8.5 101640 73
2002-04-16 08:10:27 51°11.503 2°45.589 8.4 191 8.5 101640 73
2002-04-16 08:10:32 51°11.495 2°45.559 9.1 199 8.5 101640 73
2002-04-16 08:10:38 51°11.484 2°45.523 9.9 190 8.5 101640 73
2002-04-16 08:10:42 51°11.477 2°45.5 8.9 189 8.5 101640 73
2002-04-16 08:10:48 51°11.466 2°45.464 9.3 188 8.5 101640 73
2002-04-16 08:10:53 51°11.456 2°45.434 8 188 8.5 101650 73
2002-04-16 08:10:58 51°11.448 2°45.403 7.4 188 8.5 101650 73
2002-04-16 08:11:03 51°11.439 2°45.374 8.5 190 8.5 101650 72
2002-04-16 08:11:08 51°11.43 2°45.344 8.4 190 8.5 101650 72
2002-04-16 08:11:13 51°11.421 2°45.313 9.1 190 8.5 101640 72
2002-04-16 08:11:18 51°11.412 2°45.283 8.2 193 8.5 101640 72
2002-04-16 08:11:23 51°11.404 2°45.253 8 185 8.5 101640 72
2002-04-16 08:11:28 51°11.394 2°45.224 8.6 190 8.5 101640 72
2002-04-16 08:11:32 51°11.387 2°45.199 9.1 193 8.5 101640 72
2002-04-16 08:11:38 51°11.376 2°45.163 8.8 195 8.5 101640 72
2002-04-16 08:11:43 51°11.367 2°45.133 9.5 195 8.5 101650 72
2002-04-16 08:11:48 51°11.358 2°45.104 9.5 196 8.5 101650 72
2002-04-16 08:11:53 51°11.349 2°45.074 9.2 191 8.5 101640 73
2002-04-16 08:11:58 51°11.34 2°45.044 8.6 195 8.5 101640 73
2002-04-16 08:12:03 51°11.331 2°45.013 9.4 189 8.5 101650 73
2002-04-16 08:12:08 51°11.322 2°44.983 8.3 193 8.5 101650 73
2002-04-16 08:12:13 51°11.313 2°44.953 8.5 189 8.6 101650 73
2002-04-16 08:12:18 51°11.304 2°44.924 8.1 191 8.6 101650 73
2002-04-16 08:12:22 51°11.297 2°44.899 9.2 197 8.5 101640 73
2002-04-16 08:12:28 51°11.286 2°44.863 8.7 194 8.5 101640 73
2002-04-16 08:12:33 51°11.277 2°44.833 8.2 191 8.5 101650 72
2002-04-16 08:12:38 51°11.268 2°44.804 8.4 192 8.5 101650 72
2002-04-16 08:12:43 51°11.259 2°44.773 9.7 198 8.5 101640 73
2002-04-16 08:12:48 51°11.249 2°44.744 9.3 189 8.5 101640 73
2002-04-16 08:12:53 51°11.24 2°44.714 8.8 190 8.6 101650 73
2002-04-16 08:12:58 51°11.231 2°44.684 8.8 189 8.6 101650 73
2002-04-16 08:13:03 51°11.222 2°44.654 9.1 185 8.5 101650 73
2002-04-16 08:13:08 51°11.213 2°44.624 9.5 189 8.5 101650 73
2002-04-16 08:13:13 51°11.204 2°44.594 8.7 186 8.5 101640 72
2002-04-16 08:13:18 51°11.194 2°44.564 8 184 8.5 101640 72
2002-04-16 08:13:22 51°11.187 2°44.54 9.9 191 8.5 101640 72
2002-04-16 08:13:28 51°11.177 2°44.503 8.9 188 8.5 101640 72
2002-04-16 08:13:33 51°11.167 2°44.474 8.4 189 8.5 101640 72
2002-04-16 08:13:38 51°11.158 2°44.443 8.3 191 8.5 101640 72
2002-04-16 08:13:43 51°11.15 2°44.413 8.1 186 8.5 101650 72
2002-04-16 08:13:48 51°11.141 2°44.383 9 191 8.5 101650 72
2002-04-16 08:13:53 51°11.132 2°44.353 8.8 192 8.5 101640 72
2002-04-16 08:13:58 51°11.122 2°44.323 9.5 190 8.5 101640 72
2002-04-16 08:14:03 51°11.114 2°44.293 8.7 194 8.5 101640 72
2002-04-16 08:14:08 51°11.105 2°44.263 7.8 188 8.5 101640 72
2002-04-16 08:14:13 51°11.096 2°44.233 7.5 190 8.5 101640 72
2002-04-16 08:14:18 51°11.087 2°44.203 8.1 183 8.5 101640 72
2002-04-16 08:14:23 51°11.078 2°44.173 8.6 193 8.5 101650 72
2002-04-16 08:14:28 51°11.07 2°44.143 8.8 190 8.5 101650 72
2002-04-16 08:14:33 51°11.06 2°44.114 9.5 195 8.5 101650 72
2002-04-16 08:14:38 51°11.051 2°44.084 8.3 192 8.5 101650 72
2002-04-16 08:14:42 51°11.043 2°44.06 8.9 197 8.5 101650 72
2002-04-16 08:14:48 51°11.033 2°44.024 8.6 191 8.5 101650 72
2002-04-16 08:14:53 51°11.023 2°43.994 8.7 199 8.5 101650 72
2002-04-16 08:14:58 51°11.015 2°43.963 9 192 8.5 101650 72
2002-04-16 08:15:03 51°11.005 2°43.934 8.7 193 8.5 101650 72
2002-04-16 08:15:07 51°10.998 2°43.91 9.4 195 8.5 101650 72
2002-04-16 08:15:13 51°10.987 2°43.874 9.5 195 8.5 101650 72
2002-04-16 08:15:18 51°10.979 2°43.843 9.5 194 8.5 101650 72
2002-04-16 08:15:23 51°10.969 2°43.813 9.3 196 8.5 101650 72
2002-04-16 08:15:28 51°10.961 2°43.783 10.2 195 8.5 101650 72
2002-04-16 08:15:33 51°10.951 2°43.754 9.8 193 8.6 101650 73
2002-04-16 08:15:38 51°10.943 2°43.723 9.6 191 8.6 101650 73
2002-04-16 08:15:43 51°10.934 2°43.693 9.8 193 8.6 101650 73
2002-04-16 08:15:48 51°10.925 2°43.663 8 193 8.6 101650 73
2002-04-16 08:15:53 51°10.916 2°43.633 9.1 201 8.6 101650 73
2002-04-16 08:15:58 51°10.907 2°43.604 9.4 192 8.6 101650 73
2002-04-16 08:16:03 51°10.899 2°43.573 9 191 8.6 101640 72
2002-04-16 08:16:08 51°10.889 2°43.544 10.1 195 8.6 101640 72
2002-04-16 08:16:13 51°10.88 2°43.514 10 192 8.6 101650 72
2002-04-16 08:16:18 51°10.871 2°43.484 9.3 189 8.6 101650 72
2002-04-16 08:16:23 51°10.862 2°43.455 9.5 190 8.5 101650 72
2002-04-16 08:16:28 51°10.853 2°43.424 8.7 193 8.5 101650 72
2002-04-16 08:16:33 51°10.844 2°43.395 8.6 187 8.6 101650 72
2002-04-16 08:16:38 51°10.835 2°43.365 7.7 191 8.6 101650 72
2002-04-16 08:16:43 51°10.826 2°43.335 8.4 194 8.5 101640 72
2002-04-16 08:16:48 51°10.817 2°43.306 8.6 193 8.5 101640 72
2002-04-16 08:16:53 51°10.808 2°43.277 9.2 195 8.5 101650 72
2002-04-16 08:16:58 51°10.799 2°43.247 9.5 192 8.5 101650 72
2002-04-16 08:17:03 51°10.791 2°43.217 9.3 192 8.6 101650 72
2002-04-16 08:17:08 51°10.782 2°43.188 9.5 193 8.6 101650 72
2002-04-16 08:17:13 51°10.772 2°43.159 9.5 191 8.6 101650 72
2002-04-16 08:17:18 51°10.764 2°43.128 8 190 8.6 101650 72
2002-04-16 08:17:23 51°10.755 2°43.1 8.6 187 8.6 101650 72
2002-04-16 08:17:28 51°10.747 2°43.07 9.1 195 8.6 101650 72
2002-04-16 08:17:33 51°10.738 2°43.04 7.9 190 8.6 101650 72
2002-04-16 08:17:38 51°10.73 2°43.011 8 191 8.6 101650 72
2002-04-16 08:17:43 51°10.72 2°42.982 7.6 185 8.6 101650 72
2002-04-16 08:17:48 51°10.712 2°42.952 7.8 200 8.6 101650 72
2002-04-16 08:17:53 51°10.704 2°42.923 9 194 8.5 101650 72
2002-04-16 08:17:58 51°10.695 2°42.893 8.7 195 8.5 101650 72
2002-04-16 08:18:03 51°10.686 2°42.864 8.2 195 8.5 101660 72
2002-04-16 08:18:08 51°10.677 2°42.834 10 196 8.5 101660 72
2002-04-16 08:18:13 51°10.668 2°42.806 9.9 189 8.6 101660 72
2002-04-16 08:18:18 51°10.659 2°42.776 9.6 193 8.6 101660 72
2002-04-16 08:18:23 51°10.65 2°42.747 8.8 194 8.6 101650 73
2002-04-16 08:18:28 51°10.641 2°42.718 8.9 192 8.6 101650 73
2002-04-16 08:18:33 51°10.632 2°42.689 9.5 194 8.6 101650 73
2002-04-16 08:18:38 51°10.623 2°42.66 9.6 191 8.6 101650 73
2002-04-16 08:18:43 51°10.615 2°42.631 9 197 8.6 101650 72
2002-04-16 08:18:48 51°10.606 2°42.602 8.4 191 8.6 101650 72
2002-04-16 08:18:53 51°10.597 2°42.573 8.5 192 8.6 101650 72
2002-04-16 08:18:58 51°10.588 2°42.544 9.1 193 8.6 101650 72
2002-04-16 08:19:03 51°10.58 2°42.515 8.1 191 8.6 101650 72
2002-04-16 08:19:08 51°10.571 2°42.486 9.1 190 8.6 101650 72
2002-04-16 08:19:12 51°10.564 2°42.462 8.5 190 8.6 101650 72
2002-04-16 08:19:18 51°10.554 2°42.428 7.6 190 8.6 101650 72
2002-04-16 08:19:23 51°10.545 2°42.399 8.6 194 8.6 101660 72
2002-04-16 08:19:28 51°10.536 2°42.37 9.3 195 8.6 101660 72
2002-04-16 08:19:33 51°10.527 2°42.341 9 190 8.6 101650 71
2002-04-16 08:19:38 51°10.519 2°42.311 8.3 191 8.6 101650 71
2002-04-16 08:19:43 51°10.511 2°42.282 9.5 192 8.6 101650 72
2002-04-16 08:19:48 51°10.502 2°42.254 9.3 192 8.6 101650 72
2002-04-16 08:19:53 51°10.493 2°42.224 8.3 189 8.6 101660 73
2002-04-16 08:19:58 51°10.485 2°42.195 8.7 188 8.6 101660 73
2002-04-16 08:20:03 51°10.476 2°42.167 7.9 188 8.6 101650 72
2002-04-16 08:20:08 51°10.467 2°42.138 9.1 187 8.6 101650 72
2002-04-16 08:20:13 51°10.459 2°42.109 7.9 190 8.6 101650 72
2002-04-16 08:20:18 51°10.45 2°42.08 9 193 8.6 101650 72
2002-04-16 08:20:22 51°10.444 2°42.056 8.9 193 8.6 101650 72
2002-04-16 08:20:28 51°10.433 2°42.022 8.2 186 8.6 101650 72
2002-04-16 08:20:33 51°10.425 2°41.993 7.7 188 8.6 101660 72
2002-04-16 08:20:38 51°10.416 2°41.964 9.1 192 8.6 101660 72
2002-04-16 08:20:43 51°10.407 2°41.935 9.2 186 8.6 101650 72
2002-04-16 08:20:48 51°10.398 2°41.907 8.8 189 8.6 101650 72
2002-04-16 08:20:53 51°10.389 2°41.878 8.7 189 8.6 101650 71
2002-04-16 08:20:58 51°10.381 2°41.849 8.8 191 8.6 101650 71
2002-04-16 08:21:03 51°10.372 2°41.82 8.6 193 8.6 101650 71
2002-04-16 08:21:08 51°10.364 2°41.791 9 188 8.6 101650 71
2002-04-16 08:21:13 51°10.355 2°41.763 8.2 193 8.5 101650 70
2002-04-16 08:21:18 51°10.347 2°41.733 9.5 191 8.5 101650 70
2002-04-16 08:21:23 51°10.337 2°41.705 8.7 187 8.5 101660 70
2002-04-16 08:21:28 51°10.329 2°41.676 7.9 191 8.5 101660 70
2002-04-16 08:21:33 51°10.32 2°41.648 8.6 196 8.5 101650 70
2002-04-16 08:21:38 51°10.311 2°41.619 8.2 190 8.5 101650 70
2002-04-16 08:21:43 51°10.302 2°41.59 8.6 189 8.6 101660 71
2002-04-16 08:21:48 51°10.294 2°41.561 7.5 190 8.6 101660 71
2002-04-16 08:21:53 51°10.285 2°41.533 8.5 189 8.6 101650 70
2002-04-16 08:21:58 51°10.277 2°41.504 7.4 187 8.6 101650 70
2002-04-16 08:22:02 51°10.269 2°41.481 9.4 192 8.6 101660 71
2002-04-16 08:22:08 51°10.259 2°41.447 9 189 8.6 101660 71
2002-04-16 08:22:13 51°10.25 2°41.418 7.9 188 8.6 101660 71
2002-04-16 08:22:18 51°10.242 2°41.389 8.3 194 8.6 101660 71
2002-04-16 08:22:23 51°10.233 2°41.36 8.9 191 8.6 101660 71
2002-04-16 08:22:28 51°10.224 2°41.332 9.4 190 8.6 101660 71
2002-04-16 08:22:33 51°10.216 2°41.303 8.8 196 8.6 101650 71
2002-04-16 08:22:38 51°10.207 2°41.274 9.9 192 8.6 101650 71
2002-04-16 08:22:43 51°10.199 2°41.246 8.6 192 8.6 101660 71
2002-04-16 08:22:48 51°10.19 2°41.217 9.6 190 8.6 101660 71
2002-04-16 08:22:53 51°10.182 2°41.188 7.9 190 8.6 101660 72
2002-04-16 08:22:58 51°10.173 2°41.16 8.3 189 8.6 101660 72
2002-04-16 08:23:03 51°10.165 2°41.131 8.6 191 8.6 101660 72
2002-04-16 08:23:08 51°10.155 2°41.103 7.5 191 8.6 101660 72
2002-04-16 08:23:13 51°10.147 2°41.074 8.3 194 8.6 101660 72
2002-04-16 08:23:18 51°10.138 2°41.046 9 191 8.6 101660 72
2002-04-16 08:23:23 51°10.13 2°41.017 8.2 195 8.6 101660 71
2002-04-16 08:23:28 51°10.12 2°40.989 8.6 190 8.6 101660 71
2002-04-16 08:23:33 51°10.112 2°40.959 7.7 195 8.6 101660 72
2002-04-16 08:23:38 51°10.104 2°40.931 8.1 187 8.6 101660 72
2002-04-16 08:23:43 51°10.095 2°40.902 8.4 191 8.6 101660 72
2002-04-16 08:23:48 51°10.088 2°40.873 8.1 188 8.6 101660 72
2002-04-16 08:23:53 51°10.078 2°40.845 9 195 8.6 101660 72
2002-04-16 08:23:58 51°10.071 2°40.815 8.7 190 8.6 101660 72
2002-04-16 08:24:03 51°10.061 2°40.787 7.9 189 8.6 101660 72
2002-04-16 08:24:08 51°10.053 2°40.758 8.2 192 8.6 101660 72
2002-04-16 08:24:13 51°10.044 2°40.73 8.6 198 8.6 101660 72
2002-04-16 08:24:18 51°10.036 2°40.701 9.2 197 8.6 101660 72
2002-04-16 08:24:23 51°10.027 2°40.672 9.6 196 8.6 101660 72
2002-04-16 08:24:28 51°10.018 2°40.644 10.2 193 8.6 101660 72
2002-04-16 08:24:33 51°10.009 2°40.615 9.2 191 8.6 101660 72
2002-04-16 08:24:38 51°10.001 2°40.586 8.8 199 8.6 101660 72
2002-04-16 08:24:43 51°9.993 2°40.558 10 192 8.6 101660 73
2002-04-16 08:24:48 51°9.984 2°40.529 9.7 189 8.6 101660 73
2002-04-16 08:24:53 51°9.976 2°40.499 8.3 189 8.6 101660 72
2002-04-16 08:24:58 51°9.968 2°40.47 8.5 189 8.6 101660 72
2002-04-16 08:25:03 51°9.959 2°40.442 8 187 8.6 101660 72
2002-04-16 08:25:08 51°9.951 2°40.413 7.8 189 8.6 101660 72
2002-04-16 08:25:13 51°9.942 2°40.384 8.7 187 8.6 101660 72
2002-04-16 08:25:18 51°9.934 2°40.356 7.7 193 8.6 101660 72
2002-04-16 08:25:23 51°9.925 2°40.327 7.6 193 8.6 101660 72
2002-04-16 08:25:28 51°9.917 2°40.298 7.5 190 8.6 101660 72
2002-04-16 08:25:32 51°9.909 2°40.276 8.3 184 8.6 101660 72
2002-04-16 08:25:38 51°9.9 2°40.241 7.6 189 8.6 101660 72
2002-04-16 08:25:43 51°9.891 2°40.213 7.3 188 8.6 101660 72
2002-04-16 08:25:48 51°9.882 2°40.184 7.4 186 8.6 101660 72
2002-04-16 08:25:53 51°9.873 2°40.156 7.5 188 8.6 101660 72
2002-04-16 08:25:58 51°9.864 2°40.128 6.9 184 8.6 101660 72
2002-04-16 08:26:03 51°9.856 2°40.098 7.4 199 8.6 101660 72
2002-04-16 08:26:08 51°9.847 2°40.07 8.6 194 8.6 101660 72
2002-04-16 08:26:13 51°9.838 2°40.041 9.5 197 8.6 101660 72
2002-04-16 08:26:18 51°9.83 2°40.012 8.7 198 8.6 101660 72
2002-04-16 08:26:23 51°9.821 2°39.984 9.9 192 8.6 101670 72
2002-04-16 08:26:28 51°9.813 2°39.955 8.9 195 8.6 101670 72
2002-04-16 08:26:33 51°9.804 2°39.927 8.8 191 8.6 101660 73
2002-04-16 08:26:38 51°9.796 2°39.898 9.1 193 8.6 101660 73
2002-04-16 08:26:43 51°9.787 2°39.869 8.8 195 8.6 101660 73
2002-04-16 08:26:48 51°9.779 2°39.84 9.4 195 8.6 101660 73
2002-04-16 08:26:53 51°9.771 2°39.811 9.1 193 8.6 101660 72
2002-04-16 08:26:58 51°9.762 2°39.783 9 188 8.6 101660 72
2002-04-16 08:27:03 51°9.754 2°39.755 7.8 188 8.6 101660 72
2002-04-16 08:27:08 51°9.745 2°39.726 8 194 8.6 101660 72
2002-04-16 08:27:13 51°9.737 2°39.698 7.3 191 8.6 101660 72
2002-04-16 08:27:18 51°9.727 2°39.67 9.1 189 8.6 101660 72
2002-04-16 08:27:23 51°9.72 2°39.641 8.3 190 8.6 101660 72
2002-04-16 08:27:28 51°9.711 2°39.612 8.5 193 8.6 101660 72
2002-04-16 08:27:33 51°9.703 2°39.583 9 193 8.6 101660 72
2002-04-16 08:27:38 51°9.694 2°39.555 8.9 196 8.6 101660 72
2002-04-16 08:27:43 51°9.685 2°39.526 9.4 193 8.6 101660 72
2002-04-16 08:27:48 51°9.677 2°39.497 9.8 195 8.6 101660 72
2002-04-16 08:27:53 51°9.668 2°39.469 8.5 194 8.6 101660 73
2002-04-16 08:27:58 51°9.66 2°39.44 10.3 192 8.6 101660 73
2002-04-16 08:28:03 51°9.651 2°39.411 9.6 193 8.6 101660 73
2002-04-16 08:28:08 51°9.642 2°39.383 9.7 187 8.6 101660 73
2002-04-16 08:28:13 51°9.634 2°39.354 8.3 188 8.6 101660 72
2002-04-16 08:28:18 51°9.625 2°39.326 8.7 192 8.6 101660 72
2002-04-16 08:28:22 51°9.618 2°39.303 8.5 189 8.6 101660 72
2002-04-16 08:28:28 51°9.608 2°39.268 9.2 191 8.6 101660 72
2002-04-16 08:28:33 51°9.6 2°39.24 8.1 192 8.6 101660 71
2002-04-16 08:28:38 51°9.591 2°39.212 8.1 188 8.6 101660 71
2002-04-16 08:28:43 51°9.582 2°39.183 8.9 190 8.6 101660 71
2002-04-16 08:28:48 51°9.575 2°39.153 8.2 188 8.6 101660 71
2002-04-16 08:28:53 51°9.567 2°39.124 9 193 8.6 101660 70
2002-04-16 08:28:58 51°9.56 2°39.095 8.8 191 8.6 101660 70
2002-04-16 08:29:03 51°9.553 2°39.065 9.5 201 8.6 101660 70
2002-04-16 08:29:08 51°9.545 2°39.036 10 189 8.6 101660 70
2002-04-16 08:29:13 51°9.537 2°39.006 9.6 199 8.6 101670 71
2002-04-16 08:29:18 51°9.53 2°38.977 9.3 194 8.6 101670 71
2002-04-16 08:29:23 51°9.522 2°38.948 8.7 193 8.6 101660 72
2002-04-16 08:29:28 51°9.515 2°38.918 9.5 193 8.6 101660 72
2002-04-16 08:29:33 51°9.508 2°38.888 9.3 196 8.6 101660 71
2002-04-16 08:29:38 51°9.5 2°38.859 9.9 195 8.6 101660 71
2002-04-16 08:29:43 51°9.494 2°38.829 8.5 196 8.6 101660 72
2002-04-16 08:29:47 51°9.488 2°38.805 8.9 192 8.6 101660 72
2002-04-16 08:29:53 51°9.479 2°38.769 8.1 191 8.6 101660 72
2002-04-16 08:29:58 51°9.473 2°38.739 8.1 196 8.6 101660 72
2002-04-16 08:30:03 51°9.466 2°38.71 9 193 8.6 101660 72
2002-04-16 08:30:08 51°9.458 2°38.68 9.9 193 8.6 101660 72
2002-04-16 08:30:13 51°9.452 2°38.65 8.4 193 8.6 101660 72
2002-04-16 08:30:17 51°9.446 2°38.626 9 195 8.6 101660 72
2002-04-16 08:30:23 51°9.437 2°38.59 10.2 193 8.6 101660 72
2002-04-16 08:30:28 51°9.431 2°38.56 9 192 8.6 101660 72
2002-04-16 08:30:33 51°9.423 2°38.531 8.4 189 8.6 101670 72
2002-04-16 08:30:38 51°9.416 2°38.501 8.9 192 8.6 101670 72
2002-04-16 08:30:42 51°9.41 2°38.477 9.4 195 8.6 101660 73
2002-04-16 08:30:48 51°9.402 2°38.441 9.6 193 8.6 101660 73
2002-04-16 08:30:53 51°9.394 2°38.411 9 197 8.7 101660 73
2002-04-16 08:30:58 51°9.387 2°38.381 8.8 195 8.7 101660 73
2002-04-16 08:31:03 51°9.38 2°38.352 8.8 196 8.7 101660 74
2002-04-16 08:31:08 51°9.373 2°38.322 7.8 193 8.7 101660 74
2002-04-16 08:31:13 51°9.366 2°38.292 8.5 194 8.7 101660 73
2002-04-16 08:31:18 51°9.358 2°38.262 8.6 192 8.7 101660 73
2002-04-16 08:31:22 51°9.353 2°38.238 8.7 192 8.7 101660 74
2002-04-16 08:31:28 51°9.344 2°38.202 9 193 8.7 101660 74
2002-04-16 08:31:33 51°9.337 2°38.172 8.7 197 8.7 101670 75
2002-04-16 08:31:38 51°9.33 2°38.142 8.7 194 8.7 101670 75
2002-04-16 08:31:43 51°9.323 2°38.112 9.2 196 8.7 101660 74
2002-04-16 08:31:48 51°9.316 2°38.082 9.8 199 8.7 101660 74
2002-04-16 08:31:53 51°9.309 2°38.052 9.4 199 8.7 101660 74
2002-04-16 08:31:58 51°9.302 2°38.023 10.8 196 8.7 101660 74
2002-04-16 08:32:02 51°9.296 2°37.998 9.5 197 8.7 101660 74
2002-04-16 08:32:08 51°9.288 2°37.963 10.3 194 8.7 101660 74
2002-04-16 08:32:13 51°9.28 2°37.934 9.2 193 8.7 101660 74
2002-04-16 08:32:18 51°9.273 2°37.903 9.4 194 8.7 101660 74
2002-04-16 08:32:23 51°9.266 2°37.874 9.5 192 8.6 101660 74
2002-04-16 08:32:28 51°9.259 2°37.844 9.6 191 8.6 101660 74
2002-04-16 08:32:32 51°9.254 2°37.82 9.3 194 8.6 101660 74
2002-04-16 08:32:38 51°9.245 2°37.784 8.9 187 8.6 101660 74
2002-04-16 08:32:43 51°9.238 2°37.755 10 196 8.6 101660 74
2002-04-16 08:32:48 51°9.231 2°37.724 9.1 196 8.6 101660 74
2002-04-16 08:32:53 51°9.224 2°37.695 8.7 196 8.6 101660 74
2002-04-16 08:32:58 51°9.217 2°37.665 9 195 8.6 101660 74
2002-04-16 08:33:02 51°9.212 2°37.641 9.4 196 8.6 101660 74
2002-04-16 08:33:08 51°9.202 2°37.605 8.8 195 8.6 101660 74
2002-04-16 08:33:13 51°9.196 2°37.575 9.3 197 8.6 101660 74
2002-04-16 08:33:18 51°9.189 2°37.546 9.6 193 8.6 101660 74
2002-04-16 08:33:23 51°9.182 2°37.516 9.3 195 8.6 101660 74
2002-04-16 08:33:28 51°9.175 2°37.486 9.9 192 8.6 101660 74
2002-04-16 08:33:33 51°9.168 2°37.457 8.8 195 8.6 101660 74
2002-04-16 08:33:38 51°9.16 2°37.427 10.3 191 8.6 101660 74
2002-04-16 08:33:43 51°9.153 2°37.397 9 194 8.6 101660 74
2002-04-16 08:33:48 51°9.147 2°37.367 9.7 187 8.6 101660 74
2002-04-16 08:33:53 51°9.139 2°37.338 8.7 192 8.6 101660 73
2002-04-16 08:33:58 51°9.132 2°37.308 8.7 198 8.6 101660 73
2002-04-16 08:34:03 51°9.125 2°37.278 10.7 198 8.6 101660 73
2002-04-16 08:34:08 51°9.118 2°37.248 9.4 195 8.6 101660 73
2002-04-16 08:34:13 51°9.11 2°37.219 11.3 197 8.6 101660 73
2002-04-16 08:34:18 51°9.104 2°37.188 9.8 196 8.6 101660 73
2002-04-16 08:34:23 51°9.097 2°37.159 9.1 198 8.6 101670 74
2002-04-16 08:34:28 51°9.091 2°37.128 9.4 196 8.6 101670 74
2002-04-16 08:34:33 51°9.084 2°37.099 10.4 193 8.6 101660 74
2002-04-16 08:34:38 51°9.077 2°37.069 9.5 192 8.6 101660 74
2002-04-16 08:34:43 51°9.07 2°37.039 8.9 195 8.6 101660 74
2002-04-16 08:34:48 51°9.063 2°37.009 8.9 192 8.6 101660 74
2002-04-16 08:34:53 51°9.056 2°36.979 9.3 195 8.6 101660 74
2002-04-16 08:34:58 51°9.05 2°36.949 8.7 202 8.6 101660 74
2002-04-16 08:35:03 51°9.042 2°36.92 10.3 194 8.6 101660 74
2002-04-16 08:35:08 51°9.036 2°36.89 10.1 199 8.6 101660 74
2002-04-16 08:35:13 51°9.029 2°36.86 10.4 193 8.6 101660 74
2002-04-16 08:35:18 51°9.022 2°36.83 10.4 198 8.6 101660 74
2002-04-16 08:35:23 51°9.015 2°36.8 10.6 195 8.6 101670 74
2002-04-16 08:35:28 51°9.008 2°36.77 10.4 197 8.6 101670 74
2002-04-16 08:35:33 51°9.002 2°36.74 9.9 193 8.6 101670 74
2002-04-16 08:35:38 51°8.995 2°36.71 10.1 195 8.6 101670 74
2002-04-16 08:35:43 51°8.988 2°36.681 9.1 189 8.6 101670 75
2002-04-16 08:35:48 51°8.981 2°36.651 9 193 8.6 101670 75
2002-04-16 08:35:53 51°8.974 2°36.621 9.5 191 8.6 101660 75
2002-04-16 08:35:58 51°8.967 2°36.591 8.5 186 8.6 101660 75
2002-04-16 08:36:03 51°8.96 2°36.562 9 193 8.6 101660 74
2002-04-16 08:36:08 51°8.953 2°36.532 9 190 8.6 101660 74
2002-04-16 08:36:13 51°8.946 2°36.502 8.1 190 8.6 101660 74
2002-04-16 08:36:18 51°8.94 2°36.472 9.4 191 8.6 101660 74
2002-04-16 08:36:23 51°8.932 2°36.442 9.1 188 8.6 101660 74
2002-04-16 08:36:28 51°8.926 2°36.412 8.3 195 8.6 101660 74
2002-04-16 08:36:33 51°8.919 2°36.383 10.4 197 8.6 101660 74
2002-04-16 08:36:38 51°8.913 2°36.353 8.8 195 8.6 101660 74
2002-04-16 08:36:43 51°8.907 2°36.322 10.1 197 8.6 101660 75
2002-04-16 08:36:48 51°8.901 2°36.292 8.7 196 8.6 101660 75
2002-04-16 08:36:53 51°8.895 2°36.261 9 194 8.6 101660 75
2002-04-16 08:36:58 51°8.889 2°36.231 10.4 191 8.6 101660 75
2002-04-16 08:37:02 51°8.884 2°36.207 9.5 195 8.6 101660 75
2002-04-16 08:37:08 51°8.878 2°36.17 10 194 8.6 101660 75
2002-04-16 08:37:13 51°8.871 2°36.14 10.1 191 8.6 101660 75
2002-04-16 08:37:18 51°8.865 2°36.11 9.3 197 8.6 101660 75
2002-04-16 08:37:23 51°8.858 2°36.079 9.1 191 8.6 101660 75
2002-04-16 08:37:28 51°8.852 2°36.049 8.6 193 8.6 101660 75
2002-04-16 08:37:33 51°8.846 2°36.019 8.8 198 8.6 101660 75
2002-04-16 08:37:38 51°8.839 2°35.988 10 196 8.6 101660 75
2002-04-16 08:37:43 51°8.833 2°35.957 8.9 194 8.6 101670 75
2002-04-16 08:37:48 51°8.826 2°35.927 10 192 8.6 101670 75
2002-04-16 08:37:53 51°8.821 2°35.896 9.4 195 8.6 101660 74
2002-04-16 08:37:58 51°8.814 2°35.866 9.5 196 8.6 101660 74
2002-04-16 08:38:03 51°8.808 2°35.835 8.7 193 8.6 101660 75
2002-04-16 08:38:08 51°8.801 2°35.804 9.7 196 8.6 101660 75
2002-04-16 08:38:13 51°8.794 2°35.774 9.2 194 8.5 101670 75
2002-04-16 08:38:18 51°8.788 2°35.743 10.7 198 8.5 101670 75
2002-04-16 08:38:23 51°8.781 2°35.712 9 197 8.6 101670 75
2002-04-16 08:38:28 51°8.774 2°35.681 8.4 191 8.6 101670 75
2002-04-16 08:38:33 51°8.767 2°35.65 8.9 190 8.6 101670 75
2002-04-16 08:38:38 51°8.76 2°35.62 9.8 191 8.6 101670 75
2002-04-16 08:38:43 51°8.754 2°35.588 9 190 8.6 101670 75
2002-04-16 08:38:48 51°8.747 2°35.558 9.8 193 8.6 101670 75
2002-04-16 08:38:53 51°8.739 2°35.527 10.2 192 8.6 101670 75
2002-04-16 08:38:58 51°8.733 2°35.495 9 195 8.6 101670 75
2002-04-16 08:39:03 51°8.726 2°35.464 10.2 194 8.6 101660 75
2002-04-16 08:39:08 51°8.719 2°35.433 8.4 199 8.6 101660 75
2002-04-16 08:39:13 51°8.712 2°35.402 9.2 195 8.6 101670 75
2002-04-16 08:39:18 51°8.706 2°35.37 9.9 194 8.6 101670 75
2002-04-16 08:39:23 51°8.698 2°35.339 9.3 195 8.6 101660 75
2002-04-16 08:39:28 51°8.692 2°35.307 9.5 199 8.6 101660 75
2002-04-16 08:39:33 51°8.684 2°35.276 9.1 194 8.6 101670 76
2002-04-16 08:39:38 51°8.677 2°35.244 9.5 197 8.6 101670 76
2002-04-16 08:39:43 51°8.67 2°35.212 8.7 197 8.6 101660 76
2002-04-16 08:39:48 51°8.663 2°35.181 9.4 193 8.6 101660 76
2002-04-16 08:39:53 51°8.656 2°35.149 9.2 191 8.6 101670 76
2002-04-16 08:39:58 51°8.649 2°35.117 9.6 196 8.6 101670 76
2002-04-16 08:40:02 51°8.644 2°35.092 8.7 197 8.6 101670 76
2002-04-16 08:40:08 51°8.635 2°35.054 9.4 196 8.6 101670 76
2002-04-16 08:40:13 51°8.628 2°35.022 9 202 8.6 101670 76
2002-04-16 08:40:18 51°8.621 2°34.991 10.5 196 8.6 101670 76
2002-04-16 08:40:23 51°8.614 2°34.959 8.9 201 8.6 101660 76
2002-04-16 08:40:28 51°8.607 2°34.928 9.5 197 8.6 101660 76
2002-04-16 08:40:33 51°8.6 2°34.896 9.2 195 8.6 101670 77
2002-04-16 08:40:38 51°8.592 2°34.865 9 197 8.6 101670 77
2002-04-16 08:40:43 51°8.586 2°34.833 8.8 195 8.6 101670 77
2002-04-16 08:40:48 51°8.579 2°34.801 8.4 198 8.6 101670 77
2002-04-16 08:40:53 51°8.572 2°34.77 10.1 194 8.6 101670 77
2002-04-16 08:40:58 51°8.565 2°34.738 8.1 196 8.6 101670 77
2002-04-16 08:41:03 51°8.558 2°34.707 8.9 195 8.6 101660 77
2002-04-16 08:41:08 51°8.551 2°34.675 8.9 195 8.6 101660 77
2002-04-16 08:41:13 51°8.543 2°34.644 8.4 195 8.6 101660 77
2002-04-16 08:41:18 51°8.537 2°34.612 9.4 193 8.6 101660 77
2002-04-16 08:41:23 51°8.529 2°34.581 8.4 192 8.6 101660 77
2002-04-16 08:41:28 51°8.523 2°34.549 8.6 197 8.6 101660 77
2002-04-16 08:41:33 51°8.516 2°34.518 9.3 200 8.6 101670 77
2002-04-16 08:41:38 51°8.508 2°34.486 9.6 195 8.6 101670 77
2002-04-16 08:41:43 51°8.502 2°34.454 8.2 194 8.6 101660 77
2002-04-16 08:41:48 51°8.494 2°34.424 8.1 192 8.6 101660 77
2002-04-16 08:41:53 51°8.488 2°34.392 7.7 195 8.6 101670 78
2002-04-16 08:41:58 51°8.481 2°34.361 8.9 201 8.6 101670 78
2002-04-16 08:42:03 51°8.474 2°34.329 8 194 8.6 101660 78
2002-04-16 08:42:08 51°8.466 2°34.298 7.7 194 8.6 101660 78
2002-04-16 08:42:13 51°8.459 2°34.267 8.7 193 8.6 101670 78
2002-04-16 08:42:18 51°8.451 2°34.236 8.1 194 8.6 101670 78
2002-04-16 08:42:23 51°8.443 2°34.206 8.5 194 8.6 101660 78
2002-04-16 08:42:28 51°8.434 2°34.176 8.1 197 8.6 101660 78
2002-04-16 08:42:33 51°8.424 2°34.146 8.8 192 8.6 101670 78
2002-04-16 08:42:38 51°8.414 2°34.116 8.2 196 8.6 101670 78
2002-04-16 08:42:43 51°8.403 2°34.089 6.5 184 8.6 101670 79
2002-04-16 08:42:48 51°8.392 2°34.061 7.1 192 8.6 101670 79
2002-04-16 08:42:53 51°8.38 2°34.033 6.1 183 8.6 101670 79
2002-04-16 08:42:58 51°8.368 2°34.006 6.2 186 8.6 101670 79
2002-04-16 08:43:03 51°8.355 2°33.98 6.4 188 8.6 101660 78
2002-04-16 08:43:08 51°8.342 2°33.953 6.4 190 8.6 101660 78
2002-04-16 08:43:13 51°8.329 2°33.927 7.4 187 8.6 101670 78
2002-04-16 08:43:18 51°8.316 2°33.902 6.7 188 8.6 101670 78
2002-04-16 08:43:23 51°8.303 2°33.876 7.2 188 8.6 101670 79
2002-04-16 08:43:28 51°8.289 2°33.851 6 183 8.6 101670 79
2002-04-16 08:43:33 51°8.276 2°33.825 5.8 181 8.6 101670 79
2002-04-16 08:43:38 51°8.262 2°33.801 5.8 186 8.6 101670 79
2002-04-16 08:43:43 51°8.247 2°33.779 6.5 187 8.6 101670 78
2002-04-16 08:43:48 51°8.233 2°33.756 6.2 188 8.6 101670 78
2002-04-16 08:43:53 51°8.217 2°33.734 6.3 187 8.5 101670 78
2002-04-16 08:43:58 51°8.202 2°33.713 5.5 184 8.5 101670 78
2002-04-16 08:44:03 51°8.187 2°33.69 5.5 186 8.6 101670 79
2002-04-16 08:44:08 51°8.172 2°33.668 5.7 186 8.6 101670 79
2002-04-16 08:44:13 51°8.158 2°33.645 4.9 181 8.6 101670 78
2002-04-16 08:44:18 51°8.145 2°33.624 5.9 177 8.6 101670 78
2002-04-16 08:44:23 51°8.132 2°33.605 4.8 175 8.6 101670 78
2002-04-16 08:44:28 51°8.121 2°33.586 5.4 169 8.6 101670 78
2002-04-16 08:44:33 51°8.11 2°33.568 5.8 168 8.5 101670 78
2002-04-16 08:44:38 51°8.099 2°33.552 4.6 166 8.5 101670 78
2002-04-16 08:44:42 51°8.091 2°33.54 4.8 162 8.5 101680 78
2002-04-16 08:44:48 51°8.079 2°33.523 5.2 156 8.5 101680 78
2002-04-16 08:44:53 51°8.07 2°33.509 4.2 151 8.5 101680 78
2002-04-16 08:44:58 51°8.061 2°33.497 4.6 149 8.5 101680 78
2002-04-16 08:45:03 51°8.052 2°33.485 3.8 149 8.5 101680 79
2002-04-16 08:45:08 51°8.043 2°33.473 4.6 144 8.5 101680 79
2002-04-16 08:45:13 51°8.035 2°33.462 4.3 140 8.5 101680 79
2002-04-16 08:45:18 51°8.027 2°33.452 3.6 137 8.5 101680 79
2002-04-16 08:45:22 51°8.021 2°33.444 4.1 130 8.5 101680 79
2002-04-16 08:45:28 51°8.012 2°33.434 4 126 8.5 101680 79
2002-04-16 08:45:33 51°8.004 2°33.425 3.2 120 8.5 101680 79
2002-04-16 08:45:38 51°7.996 2°33.418 4 100 8.5 101680 79
2002-04-16 08:45:43 51°7.989 2°33.411 3.6 92 8.6 101680 79
2002-04-16 08:45:48 51°7.982 2°33.405 3.2 108 8.6 101680 79
2002-04-16 08:45:53 51°7.974 2°33.398 2.6 119 8.6 101680 79
2002-04-16 08:45:58 51°7.967 2°33.393 2.5 115 8.6 101680 79
2002-04-16 08:46:03 51°7.96 2°33.387 2.9 106 8.6 101680 79
2002-04-16 08:46:08 51°7.954 2°33.382 2.8 99 8.6 101680 79
2002-04-16 08:46:13 51°7.947 2°33.377 3.1 101 8.6 101680 79
2002-04-16 08:46:18 51°7.94 2°33.372 3.6 102 8.6 101680 79
2002-04-16 08:46:23 51°7.934 2°33.367 3.5 97 8.6 101690 79
2002-04-16 08:46:28 51°7.928 2°33.362 3.1 100 8.6 101690 79
2002-04-16 08:46:33 51°7.921 2°33.357 3.5 103 8.6 101690 79
2002-04-16 08:46:38 51°7.916 2°33.352 3.8 105 8.6 101690 79
2002-04-16 08:46:43 51°7.91 2°33.346 3.7 109 8.6 101690 79
2002-04-16 08:46:48 51°7.904 2°33.341 3.5 105 8.6 101690 79
2002-04-16 08:46:53 51°7.899 2°33.335 3.8 113 8.7 101690 79
2002-04-16 08:46:58 51°7.893 2°33.329 3.5 118 8.7 101690 79
2002-04-16 08:47:03 51°7.888 2°33.323 3.9 124 8.7 101690 79
2002-04-16 08:47:08 51°7.883 2°33.316 3.9 124 8.7 101690 79
2002-04-16 08:47:13 51°7.878 2°33.309 3.4 119 8.7 101690 79
2002-04-16 08:47:18 51°7.873 2°33.303 4.2 129 8.7 101690 79
2002-04-16 08:47:23 51°7.869 2°33.296 3.7 134 8.7 101680 79
2002-04-16 08:47:28 51°7.864 2°33.289 3.3 132 8.7 101680 79
2002-04-16 08:47:33 51°7.86 2°33.282 3.9 134 8.7 101680 79
2002-04-16 08:47:38 51°7.856 2°33.275 3.8 132 8.7 101680 79
2002-04-16 08:47:43 51°7.852 2°33.268 3.9 148 8.7 101690 79
2002-04-16 08:47:48 51°7.849 2°33.261 4.6 140 8.7 101690 79
2002-04-16 08:47:53 51°7.845 2°33.253 4.5 150 8.7 101680 79
2002-04-16 08:47:58 51°7.842 2°33.246 4.3 151 8.7 101680 79
2002-04-16 08:48:03 51°7.838 2°33.239 4.8 156 8.7 101690 79
2002-04-16 08:48:08 51°7.835 2°33.231 4.4 148 8.7 101690 79
2002-04-16 08:48:13 51°7.832 2°33.224 4.9 152 8.7 101690 79
2002-04-16 08:48:18 51°7.829 2°33.216 4.4 148 8.7 101690 79
2002-04-16 08:48:23 51°7.826 2°33.209 4.6 152 8.7 101680 79
2002-04-16 08:48:29 51°7.823 2°33.2 4.4 152 8.7 101680 79
2002-04-16 08:48:33 51°7.822 2°33.194 4.7 161 8.7 101690 79
2002-04-16 08:48:39 51°7.819 2°33.185 4.9 161 8.7 101690 79
2002-04-16 08:48:43 51°7.818 2°33.179 4.8 165 8.7 101690 79
2002-04-16 08:48:48 51°7.816 2°33.172 5.1 166 8.7 101690 79
2002-04-16 08:48:53 51°7.815 2°33.165 4.4 173 8.7 101680 79
2002-04-16 08:48:58 51°7.813 2°33.157 4.5 170 8.7 101680 79
2002-04-16 08:49:03 51°7.812 2°33.15 4.1 180 8.7 101690 79
2002-04-16 08:49:08 51°7.81 2°33.143 5.1 177 8.7 101690 79
2002-04-16 08:49:13 51°7.809 2°33.137 5.2 174 8.7 101680 79
2002-04-16 08:49:18 51°7.808 2°33.13 4.2 180 8.7 101680 79
2002-04-16 08:49:23 51°7.807 2°33.123 4.5 181 8.7 101690 80
2002-04-16 08:49:28 51°7.807 2°33.117 5.2 191 8.7 101690 80
2002-04-16 08:49:33 51°7.806 2°33.11 5 193 8.7 101680 80
2002-04-16 08:49:38 51°7.805 2°33.104 5.3 192 8.7 101680 80
2002-04-16 08:49:43 51°7.805 2°33.097 5.8 190 8.7 101680 80
2002-04-16 08:49:48 51°7.804 2°33.091 5.3 192 8.7 101680 80
2002-04-16 08:49:53 51°7.804 2°33.085 5.5 193 8.8 101680 80
2002-04-16 08:49:58 51°7.803 2°33.078 5.3 193 8.8 101680 80
2002-04-16 08:50:03 51°7.802 2°33.072 5.3 190 8.8 101680 80
2002-04-16 08:50:08 51°7.802 2°33.065 5.5 197 8.8 101680 80
2002-04-16 08:50:13 51°7.802 2°33.058 6.2 195 8.8 101680 80
2002-04-16 08:50:18 51°7.801 2°33.051 5.8 193 8.8 101680 80
2002-04-16 08:50:23 51°7.801 2°33.044 5.8 198 8.7 101680 79
2002-04-16 08:50:28 51°7.801 2°33.036 6.1 199 8.7 101680 79
2002-04-16 08:50:33 51°7.801 2°33.029 5.9 197 8.7 101680 79
2002-04-16 08:50:38 51°7.801 2°33.022 5.6 198 8.7 101680 79
2002-04-16 08:50:42 51°7.801 2°33.016 6.1 194 8.7 101680 79
2002-04-16 08:50:48 51°7.801 2°33.007 5.8 194 8.7 101680 79
2002-04-16 08:50:53 51°7.802 2°32.999 5.7 204 8.7 101680 79
2002-04-16 08:50:58 51°7.802 2°32.992 5.4 208 8.7 101680 79
2002-04-16 08:51:03 51°7.803 2°32.984 6.1 207 8.7 101680 79
2002-04-16 08:51:08 51°7.803 2°32.977 6.3 212 8.7 101680 79
2002-04-16 08:51:13 51°7.804 2°32.969 6 207 8.6 101680 79
2002-04-16 08:51:18 51°7.805 2°32.962 6 213 8.6 101680 79
2002-04-16 08:51:23 51°7.807 2°32.954 6.7 216 8.6 101680 79
2002-04-16 08:51:28 51°7.808 2°32.947 6.9 215 8.6 101680 79
2002-04-16 08:51:33 51°7.809 2°32.94 6.9 217 8.6 101680 79
2002-04-16 08:51:38 51°7.811 2°32.932 7.1 218 8.6 101680 79
2002-04-16 08:51:43 51°7.812 2°32.925 7.4 216 8.6 101680 79
2002-04-16 08:51:48 51°7.814 2°32.918 7.5 216 8.6 101680 79
2002-04-16 08:51:53 51°7.816 2°32.91 7.4 214 8.6 101680 79
2002-04-16 08:51:58 51°7.817 2°32.903 6.9 214 8.6 101680 79
2002-04-16 08:52:03 51°7.819 2°32.895 7.2 213 8.7 101680 79
2002-04-16 08:52:08 51°7.821 2°32.888 6.7 216 8.7 101680 79
2002-04-16 08:52:13 51°7.823 2°32.881 7.2 218 8.6 101680 79
2002-04-16 08:52:18 51°7.825 2°32.873 7.2 216 8.6 101680 79
2002-04-16 08:52:23 51°7.827 2°32.866 7.4 218 8.6 101680 79
2002-04-16 08:52:28 51°7.829 2°32.858 6.8 215 8.6 101680 79
2002-04-16 08:52:33 51°7.83 2°32.851 6.7 212 8.6 101680 79
2002-04-16 08:52:38 51°7.833 2°32.844 7.3 216 8.6 101680 79
2002-04-16 08:52:43 51°7.835 2°32.836 7.1 217 8.6 101680 79
2002-04-16 08:52:48 51°7.837 2°32.828 7.1 217 8.6 101680 79
2002-04-16 08:52:53 51°7.839 2°32.821 7.2 215 8.6 101680 78
2002-04-16 08:52:58 51°7.841 2°32.813 7.2 215 8.6 101680 78
2002-04-16 08:53:03 51°7.843 2°32.806 7.5 217 8.6 101680 78
2002-04-16 08:53:08 51°7.845 2°32.798 6.9 218 8.6 101680 78
2002-04-16 08:53:13 51°7.847 2°32.791 6.7 218 8.6 101680 78
2002-04-16 08:53:18 51°7.849 2°32.784 7 219 8.6 101680 78
2002-04-16 08:53:22 51°7.851 2°32.778 6.2 218 8.6 101680 78
2002-04-16 08:53:28 51°7.853 2°32.769 6.6 221 8.6 101680 78
2002-04-16 08:53:33 51°7.855 2°32.763 6.4 218 8.6 101680 78
2002-04-16 08:53:38 51°7.856 2°32.756 6.6 220 8.6 101680 78
2002-04-16 08:53:43 51°7.858 2°32.749 6.5 219 8.6 101680 78
2002-04-16 08:53:48 51°7.859 2°32.743 6 220 8.6 101680 78
2002-04-16 08:53:53 51°7.861 2°32.736 6.3 218 8.6 101690 78
2002-04-16 08:53:58 51°7.862 2°32.73 6.4 219 8.6 101690 78
2002-04-16 08:54:03 51°7.863 2°32.724 6.3 215 8.7 101680 78
2002-04-16 08:54:08 51°7.865 2°32.717 6.4 218 8.7 101680 78
2002-04-16 08:54:13 51°7.865 2°32.712 6.1 218 8.7 101680 78